Date,TemperatureHighF,TemperatureAvgF,TemperatureLowF,DewpointHighF,DewpointAvgF,DewpointLowF,HumidityHigh,HumidityAvg,HumidityLow,PressureMaxIn,PressureMinIn,WindSpeedMaxMPH,WindSpeedAvgMPH,GustSpeedMaxMPH,PrecipitationSumIn
2013-1-8,44.2,34.8,27.7,22.0,19.7,18.0,67,55,40,25.40,25.24,20,7,25,0.00
2013-1-9,55.4,38.1,25.4,26.0,19.9,15.0,70,51,25,25.45,25.22,20,7,26,0.00
2013-1-10,50.9,36.5,22.2,39.0,27.7,15.0,92,71,47,25.22,24.71,19,6,33,0.00
2013-1-11,30.7,17.9,3.7,27.0,12.7,-2.0,95,80,63,25.04,24.63,21,8,25,0.00
2013-1-12,10.9,4.3,-5.4,3.0,-2.0,-10.0,82,75,67,25.23,25.05,18,8,23,0.00
2013-1-13,13.8,4.7,-6.9,4.0,-2.2,-12.0,82,73,59,25.32,25.23,9,4,12,0.00
2013-1-14,16.9,1.5,-8.4,5.0,-6.9,-14.0,81,69,42,25.36,25.26,9,4,13,0.00
2013-1-15,29.4,18.5,-8.3,19.0,8.3,-13.0,82,65,57,25.29,25.21,19,9,27,0.00
2013-1-16,43.9,32.6,27.5,23.0,18.6,14.0,67,57,41,25.52,25.25,25,10,31,0.00
2013-1-17,49.6,32.9,18.6,21.0,15.5,10.0,73,52,26,25.60,25.37,12,6,18,0.00
2013-1-18,55.8,39.8,21.9,15.0,12.1,10.0,64,35,17,25.36,25.22,31,10,32,0.00
2013-1-19,54.3,40.2,25.1,12.0,10.6,5.0,56,31,14,25.41,25.23,20,7,27,0.00
2013-1-20,39.8,29.2,16.2,19.0,13.6,10.0,82,55,33,25.47,25.32,19,6,25,0.00
2013-1-21,52.1,32.6,14.4,19.0,13.2,10.0,84,51,22,25.42,25.25,17,6,26,0.00
2013-1-22,55.2,40.3,27.2,10.0,7.5,4.0,49,28,13,25.33,25.23,26,8,27,0.00
2013-1-23,58.3,38.7,22.8,18.0,7.4,-2.0,80,33,12,25.37,25.30,12,4,16,0.00
2013-1-24,63.5,42.8,22.3,29.0,20.8,9.0,87,50,15,25.36,25.15,22,6,32,0.00
2013-1-25,53.9,39.9,29.6,30.0,26.5,21.0,78,61,37,25.37,25.27,12,4,16,0.00
2013-1-26,58.3,41.5,25.4,33.0,25.8,20.0,83,57,32,25.27,25.01,10,3,15,0.00
2013-1-27,58.4,44.8,30.1,40.0,30.9,24.0,93,63,31,25.00,24.94,17,4,21,0.01
2013-1-28,32.2,28.6,23.9,30.0,26.7,21.0,95,92,80,24.98,24.90,17,6,19,0.00
2013-1-29,28.4,21.9,10.8,23.0,13.5,6.0,90,70,55,25.14,24.94,20,8,26,0.00
2013-1-30,35.3,21.6,2.6,21.0,12.5,-2.0,83,69,49,25.14,25.01,22,7,27,0.00
2013-1-31,27.9,24.5,21.3,21.0,18.3,16.0,86,77,67,25.34,25.11,17,5,22,0.00
2013-2-1,47.4,31.3,17.2,33.0,24.1,14.0,93,76,38,25.37,25.21,17,7,30,0.00
2013-2-2,47.9,34.3,23.7,29.0,21.2,17.0,85,61,31,25.45,25.38,18,6,24,0.01
2013-2-3,55.7,39.0,19.2,26.0,14.9,11.0,78,43,18,25.44,25.11,17,6,22,0.00
2013-2-4,53.0,38.6,22.8,20.0,14.8,10.0,63,41,18,25.19,25.06,20,8,30,0.00
2013-2-5,53.7,40.8,27.3,21.0,19.3,17.0,67,44,26,25.26,25.08,16,5,22,0.00
2013-2-6,53.6,43.2,32.1,26.0,21.6,13.0,70,45,20,25.26,25.03,15,5,23,0.00
2013-2-7,48.7,37.7,22.0,24.0,17.3,14.0,85,47,26,25.35,25.27,11,4,18,0.00
2013-2-8,50.6,35.8,17.4,24.0,18.5,12.0,80,53,29,25.19,24.94,12,2,19,0.00
2013-2-9,32.2,25.8,21.6,24.0,20.7,16.0,89,81,70,24.97,24.79,20,8,27,0.00
2013-2-10,28.2,23.5,15.2,24.0,18.8,9.0,92,82,65,25.23,24.80,30,14,37,0.00
2013-2-11,31.4,16.7,2.6,15.0,7.7,-3.0,83,69,43,25.28,25.19,12,4,12,0.00
2013-2-12,36.7,23.2,5.7,15.0,8.2,-1.0,78,54,34,25.23,25.21,20,10,28,0.00
2013-2-13,43.9,33.0,21.7,28.0,19.2,12.0,89,58,41,25.23,25.11,32,12,36,0.00
2013-2-14,31.2,25.8,17.7,26.0,18.9,12.0,91,75,61,25.45,25.21,24,8,31,0.00
2013-2-15,30.0,23.8,16.3,23.0,17.6,13.0,87,77,56,25.45,25.38,20,7,28,0.00
2013-2-16,50.4,39.0,24.1,22.0,19.6,14.0,79,48,30,25.37,25.14,25,10,32,0.00
2013-2-17,58.6,41.1,24.5,26.0,12.4,-3.0,75,38,8,25.14,24.85,19,8,27,0.00
2013-2-18,36.5,26.8,14.5,25.0,18.5,12.0,90,72,45,25.29,25.02,22,10,31,0.00
2013-2-19,41.5,25.2,9.9,21.0,14.9,7.0,93,68,36,25.29,25.11,20,6,36,0.00
2013-2-20,23.8,19.2,14.7,22.0,15.6,12.0,92,85,76,25.11,24.98,17,6,27,0.00
2013-2-21,21.2,17.6,13.6,16.0,13.7,11.0,90,84,77,25.09,25.01,12,4,15,0.00
2013-2-22,33.8,21.8,5.7,21.0,14.6,2.0,91,75,50,25.15,25.07,13,5,19,0.01
2013-2-23,41.8,28.4,11.0,27.0,16.2,6.0,83,63,38,25.05,24.89,13,4,16,0.02
2013-2-24,32.0,16.4,26.4,29.0,-28.0,-99.9,95,52,85,25.28,24.98,24,-428,25,0.00
2013-2-25,36.8,20.0,9.5,18.0,-12.0,-99.9,86,48,39,25.28,25.05,10,-222,14,0.00
2013-2-26,36.5,27.2,16.5,28.0,20.8,11.0,92,77,52,25.28,25.02,25,12,31,0.00
2013-2-27,33.0,25.7,15.2,24.0,16.0,6.0,91,68,52,25.40,25.28,19,10,24,0.00
2013-2-28,38.2,28.5,14.5,20.0,14.9,6.0,73,58,41,25.42,25.35,20,10,29,0.00
2013-3-1,43.2,33.8,20.7,31.0,20.7,14.0,77,60,39,25.45,25.41,18,7,23,0.00
2013-3-2,55.4,45.1,36.8,31.0,29.0,27.0,73,55,34,25.43,25.24,21,9,32,0.00
2013-3-3,61.9,47.9,36.5,31.0,26.3,-99.9,70,47,27,25.23,24.90,23,-5,32,0.00
2013-3-4,39.7,27.9,17.4,28.0,14.4,6.0,81,59,32,25.40,24.95,27,12,37,0.00
2013-3-5,43.6,27.8,14.9,17.0,10.1,5.0,72,51,26,25.45,25.34,13,4,21,0.00
2013-3-6,55.2,35.9,18.5,26.0,20.1,13.0,80,57,26,25.33,25.09,17,5,24,0.00
2013-3-7,66.0,43.8,25.6,29.0,23.8,19.0,86,53,17,25.24,25.09,9,3,15,0.00
2013-3-8,45.8,34.7,23.5,30.0,26.9,21.0,90,75,54,25.24,24.96,6,2,14,0.00
2013-3-9,36.9,31.1,25.3,30.0,25.2,16.0,93,80,58,25.25,24.90,21,11,32,0.00
2013-3-10,40.9,29.7,19.9,22.0,14.0,8.0,86,55,28,0.00,40.00,22,11,30,0.00
2013-3-11,45.1,35.6,27.4,30.0,24.4,19.0,90,65,45,25.34,25.14,25,8,27,0.00
2013-3-12,42.8,32.0,23.8,27.0,21.3,17.0,88,67,41,25.47,25.35,14,6,21,0.00
2013-3-13,64.1,46.0,27.0,33.0,27.3,23.0,87,54,25,25.41,25.34,19,8,28,0.00
2013-3-14,70.8,55.9,41.5,31.0,26.3,15.0,63,36,13,25.47,25.30,19,7,25,0.00
2013-3-15,72.3,55.1,38.4,29.0,24.9,20.0,61,35,15,25.30,25.09,20,6,32,0.00
2013-3-16,50.3,41.2,31.8,33.0,28.6,25.0,84,62,43,25.24,25.06,24,6,34,0.00
2013-3-17,57.7,36.6,24.3,35.0,21.8,7.0,93,64,17,25.07,24.77,35,10,42,0.00
2013-3-18,46.3,33.0,21.3,21.0,11.8,5.0,87,46,19,25.18,25.06,20,7,31,0.00
2013-3-19,44.6,31.2,19.7,23.0,13.4,-99.9,85,54,21,25.51,25.16,23,-4,32,0.00
2013-3-20,54.1,21.8,13.8,23.0,-16.9,-99.9,86,44,20,25.51,24.98,22,-276,26,0.00
2013-3-21,-200.0,0.0,200.0,-99.9,-99.9,-99.9,0,0,100,25.08,24.84,0,-999,0,0.00
2013-3-22,-200.0,0.0,200.0,-99.9,-99.9,-99.9,0,0,100,25.14,25.02,0,-999,0,0.00
2013-3-23,26.3,14.2,13.4,16.0,-16.5,-99.9,89,56,55,25.34,25.12,21,-248,27,0.00
2013-3-24,27.6,18.3,6.3,16.0,8.8,1.0,81,68,44,25.39,25.26,21,7,28,0.00
2013-3-25,37.1,21.5,6.8,17.0,8.5,3.0,85,62,25,25.43,25.36,12,6,19,0.00
2013-3-26,52.5,39.0,15.3,36.0,19.9,-99.9,91,55,22,25.37,25.16,13,-10,24,0.05
2013-3-27,58.6,42.8,32.3,36.0,32.6,30.0,93,71,36,25.31,25.21,13,4,20,0.05
2013-3-28,65.4,48.7,33.0,34.0,26.1,19.0,88,49,18,25.32,25.24,17,5,22,0.00
2013-3-29,67.3,49.1,33.4,33.0,29.4,24.0,76,51,20,25.32,25.23,29,6,41,0.00
2013-3-30,58.1,45.9,35.8,35.0,32.4,30.0,80,61,38,25.39,25.28,18,6,26,0.00
2013-3-31,65.0,45.8,25.7,37.0,24.0,16.0,85,52,15,25.38,25.17,22,7,26,0.00
2013-4-1,50.2,37.3,21.3,27.0,23.2,16.0,82,59,39,25.37,25.30,14,4,23,0.00
2013-4-2,52.7,39.5,29.6,32.0,28.8,25.0,86,67,44,25.35,25.30,11,4,21,0.00
2013-4-3,66.0,44.8,28.5,35.0,30.4,22.0,95,64,19,25.34,25.23,17,6,30,0.00
2013-4-4,69.2,53.4,35.6,36.0,32.0,29.0,82,48,23,25.36,25.21,16,6,26,0.00
2013-4-5,70.1,58.5,44.4,35.0,28.7,22.0,57,35,17,25.21,24.96,18,8,29,0.00
2013-4-6,63.4,53.4,37.6,38.0,26.7,19.0,78,40,18,25.14,25.06,18,8,28,0.00
2013-4-7,63.1,52.6,41.9,40.0,32.0,22.0,88,51,21,25.09,24.93,13,6,32,0.01
2013-4-8,62.1,42.3,17.9,42.0,30.7,16.0,95,68,30,25.09,24.83,30,9,41,0.08
2013-4-9,17.3,11.8,10.1,15.0,9.0,7.0,92,88,84,25.37,25.08,29,14,36,0.08
2013-4-10,22.3,15.4,7.8,15.0,10.6,5.0,89,81,68,25.35,25.11,21,10,27,0.00
2013-4-11,43.1,26.7,8.8,33.0,21.3,6.0,90,81,65,25.12,24.98,17,6,29,0.03
2013-4-12,42.7,35.9,29.7,36.0,31.2,27.0,94,83,66,25.23,25.11,17,5,25,0.05
2013-4-13,57.0,41.0,28.3,41.0,33.9,27.0,96,78,46,25.20,24.75,15,5,23,0.11
2013-4-14,46.8,38.5,28.2,38.0,20.9,10.0,86,52,26,25.00,24.74,29,12,37,0.12
2013-4-15,27.8,25.5,22.7,24.0,22.0,20.0,93,87,74,25.24,25.01,12,4,15,0.00
2013-4-16,29.3,26.6,24.0,27.0,24.8,22.0,95,93,88,25.25,25.17,18,6,29,0.00
2013-4-17,28.7,24.5,20.0,28.0,22.7,18.0,96,93,88,25.32,25.21,21,8,25,0.00
2013-4-18,29.0,22.3,15.6,19.0,15.4,11.0,90,76,62,25.31,25.27,22,11,32,0.00
2013-4-19,49.9,37.4,22.7,32.0,24.0,14.0,75,60,41,25.27,25.17,17,8,26,0.07
2013-4-20,57.3,44.9,31.8,38.0,32.5,28.0,86,64,42,25.20,25.14,12,3,17,0.01
2013-4-21,59.3,48.3,40.1,39.0,30.2,-99.9,88,56,32,25.28,0.00,21,-21,23,0.01
2013-4-22,39.8,29.7,22.0,37.0,26.4,18.0,96,87,77,25.49,25.15,26,11,32,0.01
2013-4-23,40.2,28.1,18.6,22.0,14.6,-99.9,88,62,32,25.48,25.30,12,-6,19,0.00
2013-4-24,50.9,39.5,23.8,23.0,14.6,-99.9,81,43,21,25.39,25.32,19,-18,25,0.00
2013-4-25,66.7,48.4,26.5,31.0,16.6,2.0,77,39,8,25.37,25.13,15,5,22,0.00
2013-4-26,69.3,53.8,35.3,26.0,20.4,14.0,59,31,12,25.41,25.22,16,4,24,0.00
2013-4-27,76.1,57.1,33.2,29.0,20.4,-99.9,69,31,10,25.40,25.21,15,-5,22,0.00
2013-4-28,77.3,62.2,43.7,33.0,28.7,25.0,51,31,15,25.20,25.10,19,8,27,0.00
2013-4-29,79.7,62.4,42.4,41.0,28.2,-99.9,73,34,9,25.18,24.86,19,-3,32,0.00
2013-4-30,60.9,45.6,32.1,38.0,33.3,26.0,96,66,26,25.26,24.91,21,7,27,0.13
2013-5-1,32.1,27.9,23.8,31.0,26.0,19.0,96,92,83,25.73,25.27,16,7,22,0.13
2013-5-2,44.4,31.5,17.0,26.0,18.1,11.0,82,61,28,25.79,25.57,10,5,16,0.12
2013-5-3,59.6,43.4,26.9,30.0,23.9,17.0,80,52,21,25.57,25.31,11,4,16,0.00
2013-5-4,56.3,44.3,29.4,28.0,23.1,19.0,84,48,23,25.43,25.35,16,4,22,0.00
2013-5-5,62.5,47.0,29.7,30.0,23.6,18.0,76,44,21,25.45,25.32,13,3,18,0.00
2013-5-6,69.1,54.0,35.9,37.0,28.4,23.0,70,42,20,25.34,25.18,18,5,27,0.00
2013-5-7,71.5,53.5,37.6,45.0,39.7,35.0,92,63,35,25.20,25.14,16,3,24,0.00
2013-5-8,72.1,55.3,42.3,45.0,40.8,37.0,86,62,29,25.31,25.17,16,5,22,0.00
2013-5-9,67.6,54.2,41.9,44.0,38.7,33.0,85,59,29,25.41,25.30,15,4,19,0.00
2013-5-10,71.3,56.7,42.3,46.0,36.8,-99.9,92,54,18,25.50,25.36,20,-6,23,0.00
2013-5-11,66.3,54.2,41.7,42.0,36.4,27.0,79,54,31,25.59,25.41,16,5,19,0.00
2013-5-12,80.8,64.8,45.6,43.0,36.5,31.0,83,42,18,25.41,25.28,19,7,24,0.00
2013-5-13,89.8,71.5,51.1,42.0,37.6,32.0,66,35,14,25.34,25.22,15,5,17,0.00
2013-5-14,91.9,74.4,56.1,42.0,36.8,27.0,59,30,11,25.21,25.13,16,5,22,0.00
2013-5-15,82.6,67.3,53.4,48.0,42.7,38.0,70,44,21,25.22,25.14,11,4,19,0.00
2013-5-16,80.2,64.2,54.5,50.0,45.2,40.0,72,52,25,25.18,25.05,32,4,48,0.05
2013-5-17,86.9,70.6,53.0,58.0,45.8,24.0,82,50,10,25.12,25.00,20,7,27,0.00
2013-5-18,79.8,63.2,53.9,58.0,47.5,38.0,87,60,24,25.14,25.01,13,6,31,0.01
2013-5-19,60.7,54.1,50.2,47.0,41.1,-99.9,84,64,52,25.08,25.02,24,0,30,0.00
2013-5-20,54.4,49.4,46.0,46.0,41.3,38.0,88,74,57,25.18,25.07,36,17,44,0.00
2013-5-21,64.9,53.5,43.3,40.0,35.0,27.0,87,54,25,25.21,25.13,27,14,38,0.00
2013-5-22,69.5,53.0,37.2,44.0,38.1,-99.9,88,62,35,25.34,25.19,14,-6,17,0.00
2013-5-23,62.8,52.7,43.5,50.0,46.3,42.0,97,80,61,25.37,25.26,28,10,45,0.00
2013-5-24,83.2,66.4,54.7,56.0,52.7,47.0,95,66,32,25.27,25.18,24,8,33,0.00
2013-5-25,85.9,70.4,55.5,57.0,50.8,33.0,96,57,16,25.24,25.13,14,4,26,0.00
2013-5-26,83.7,68.3,53.1,55.0,49.7,37.0,85,56,25,25.20,25.10,18,5,22,0.00
2013-5-27,80.6,63.2,47.8,58.0,48.2,35.0,92,62,21,25.10,24.99,20,5,24,0.01
2013-5-28,78.7,58.3,44.5,54.0,45.9,40.0,90,67,33,25.10,24.89,21,6,34,0.81
2013-5-29,63.9,55.9,50.0,52.0,47.1,43.0,95,75,50,25.02,24.86,24,7,29,0.42
2013-5-30,70.5,57.6,45.0,43.0,35.5,21.0,80,49,16,25.07,24.90,28,10,40,0.00
2013-5-31,66.9,54.6,44.0,42.0,34.0,28.0,81,50,24,25.25,25.05,24,14,38,0.00
2013-6-1,65.8,53.1,44.8,44.0,38.8,32.0,90,63,29,25.42,25.25,26,13,32,0.00
2013-6-2,80.7,62.5,40.6,42.0,39.2,36.0,86,48,20,25.42,25.09,22,8,32,0.00
2013-6-3,89.3,68.6,49.7,52.0,40.6,29.0,76,44,13,25.17,25.00,18,6,24,0.01
2013-6-4,75.4,58.2,45.3,51.0,44.2,40.0,88,63,30,25.42,25.17,20,7,25,0.23
2013-6-5,67.0,53.1,42.8,45.0,40.7,37.0,89,66,38,25.45,25.33,14,5,17,0.02
2013-6-6,76.9,61.6,44.0,50.0,41.6,34.0,90,55,22,25.36,25.26,17,5,24,0.00
2013-6-7,80.8,66.1,49.0,51.0,45.7,41.0,85,53,26,25.35,25.05,14,5,21,0.00
2013-6-8,74.4,64.5,55.8,52.0,44.5,37.0,83,51,26,25.24,24.98,30,12,34,0.00
2013-6-9,85.2,68.7,46.3,47.0,42.8,40.0,79,44,22,25.28,25.16,16,5,21,0.00
2013-6-10,99.4,77.9,56.0,48.0,41.6,30.0,64,33,9,25.16,25.08,20,4,30,0.00
2013-6-11,94.3,78.7,59.9,59.0,52.3,25.0,78,44,14,25.19,25.05,17,4,30,0.00
2013-6-12,88.9,72.1,57.1,58.0,44.7,23.0,86,42,15,25.37,25.20,12,4,22,0.00
2013-6-13,81.1,48.5,50.1,54.0,16.7,-99.9,91,53,37,25.40,25.17,24,-215,36,0.00
2013-6-14,89.2,73.6,61.0,58.0,47.5,32.0,77,44,13,25.32,25.13,25,8,30,0.11
2013-6-15,80.2,65.8,53.9,54.0,51.1,38.0,82,62,27,25.34,25.22,15,5,27,0.00
2013-6-16,90.8,70.7,55.8,59.0,47.5,27.0,94,55,10,25.35,25.24,17,5,22,0.00
2013-6-17,79.7,64.3,50.9,56.0,51.8,45.0,98,68,34,25.45,25.30,15,4,31,0.04
2013-6-18,86.1,68.0,53.0,54.0,49.6,38.0,87,57,24,25.41,25.16,21,7,31,0.11
2013-6-19,92.2,72.6,54.3,60.0,53.8,28.0,89,58,10,25.24,24.99,23,10,46,0.00
2013-6-20,88.8,74.0,56.9,62.0,44.9,25.0,95,46,11,25.17,25.03,24,6,30,0.00
2013-6-21,90.4,71.6,62.2,64.0,57.8,45.0,93,65,36,25.16,25.07,21,6,34,0.00
2013-6-22,81.0,65.8,54.1,62.0,54.2,49.0,89,68,49,25.24,25.01,20,5,26,0.11
2013-6-23,82.6,67.2,50.7,54.0,48.6,42.0,90,56,24,25.27,25.13,26,7,47,0.00
2013-6-24,89.9,75.8,60.3,62.0,47.9,36.0,80,41,15,25.14,25.00,22,10,39,0.00
2013-6-25,89.2,76.7,63.0,65.0,47.0,37.0,95,43,17,25.23,25.07,23,6,29,0.00
2013-6-26,96.4,79.9,58.5,47.0,40.5,34.0,56,28,12,25.29,25.23,11,3,21,0.00
2013-6-27,93.4,77.7,63.5,56.0,48.4,40.0,69,39,19,25.47,25.28,17,6,20,0.00
2013-6-28,92.8,77.6,60.3,57.0,52.9,50.0,76,45,25,25.49,25.38,9,3,17,0.00
2013-6-29,89.0,74.7,59.3,52.0,50.3,45.0,74,46,23,25.47,25.34,16,4,22,0.00
2013-6-30,83.8,69.8,56.6,51.0,47.9,45.0,77,48,29,25.45,25.39,11,3,15,0.00
2013-7-1,80.0,66.8,54.4,57.0,50.9,46.0,86,59,36,25.52,25.45,16,4,23,0.03
2013-7-2,82.6,68.9,54.1,51.0,47.5,42.0,81,50,27,25.49,25.38,13,4,19,0.00
2013-7-3,90.2,73.5,56.5,47.0,41.4,38.0,60,35,17,25.38,25.17,10,4,20,0.00
2013-7-4,91.6,76.5,57.8,51.0,44.6,36.0,55,35,15,25.21,25.17,19,6,23,0.00
2013-7-5,92.6,74.3,60.7,56.0,52.1,47.0,72,49,21,25.19,25.08,15,3,31,0.00
2013-7-6,89.7,75.9,61.7,57.0,53.5,49.0,77,50,25,25.23,25.11,17,5,25,0.00
2013-7-7,91.5,73.7,62.5,59.0,56.2,52.0,80,57,28,25.33,25.23,12,3,15,0.00
2013-7-8,92.5,73.7,59.1,60.0,54.5,46.0,92,57,22,25.32,25.26,11,2,16,0.00
2013-7-9,95.7,77.2,61.1,57.0,48.5,-99.9,77,44,13,25.42,25.32,18,-6,23,0.00
2013-7-10,86.4,74.2,62.4,63.0,58.3,55.0,81,60,36,25.48,25.30,24,7,33,0.00
2013-7-11,95.7,78.0,59.8,59.0,55.5,50.0,84,51,22,25.35,25.14,27,8,38,0.00
2013-7-12,95.4,76.8,64.6,63.0,54.5,-99.9,89,53,23,25.34,25.17,21,-5,33,0.05
2013-7-13,93.5,76.3,65.3,63.0,55.2,-99.9,88,55,26,25.40,25.27,23,-18,36,0.04
2013-7-14,77.7,67.9,63.5,65.0,60.4,-99.9,95,80,62,25.45,25.30,22,-4,33,0.01
2013-7-15,82.1,70.8,62.1,65.0,56.9,46.0,97,67,30,25.45,25.35,25,6,32,0.07
2013-7-16,82.5,69.7,56.0,57.0,49.5,-99.9,79,53,32,25.48,25.38,20,-2,30,0.00
2013-7-17,81.5,65.6,58.0,59.0,57.1,53.0,95,77,38,25.49,25.46,19,8,34,0.00
2013-7-18,73.7,70.0,67.0,61.0,59.8,58.0,78,70,58,25.39,25.33,12,8,25,0.04
2013-7-19,79.8,68.8,61.5,62.0,54.1,-99.9,86,64,38,25.45,25.33,11,-17,15,0.06
2013-7-20,86.8,70.0,58.4,62.0,54.2,-99.9,87,62,36,25.33,25.17,12,-6,33,0.01
2013-7-21,87.0,68.3,56.2,62.0,52.8,-99.9,96,66,33,25.26,25.13,15,-26,24,0.01
2013-7-22,92.7,75.9,60.0,64.0,55.5,-99.9,94,56,27,25.27,25.16,15,-20,19,0.00
2013-7-23,89.7,73.0,59.6,60.0,54.6,-99.9,85,57,29,25.39,25.21,9,-7,18,0.00
2013-7-24,87.6,69.3,58.5,63.0,57.6,50.0,93,71,29,25.45,25.30,25,6,33,0.21
2013-7-25,81.3,66.5,57.5,60.0,48.0,-99.9,93,60,36,25.45,25.31,14,-47,21,0.00
2013-7-26,81.9,68.6,58.7,60.0,56.2,52.0,89,67,39,25.54,25.38,15,4,28,0.00
2013-7-27,62.6,56.7,51.8,58.0,52.1,-99.9,96,87,78,25.41,25.32,13,-8,18,0.03
2013-7-28,72.2,61.2,55.5,61.0,57.0,54.0,97,87,65,25.32,25.21,16,7,24,0.08
2013-7-29,80.5,68.1,59.1,62.0,56.8,-99.9,97,72,44,25.37,25.21,13,-8,21,0.00
2013-7-30,90.6,74.4,57.5,62.0,52.8,45.0,86,53,21,25.47,25.34,10,4,20,0.00
2013-7-31,89.4,71.7,56.0,59.0,53.1,43.0,88,56,25,25.52,25.40,9,3,12,0.00
2013-8-1,91.3,73.3,61.2,61.0,56.3,50.0,80,58,31,25.43,25.21,23,7,37,0.03
2013-8-2,91.0,74.6,58.6,65.0,56.6,49.0,89,58,25,25.33,25.22,15,4,19,0.02
2013-8-3,76.6,66.2,61.8,68.0,62.1,-99.9,96,89,74,25.45,25.31,24,-5,39,0.01
2013-8-4,92.7,72.1,58.6,63.0,53.7,-99.9,98,60,21,25.41,25.28,16,-8,22,0.00
2013-8-5,87.8,73.7,60.6,62.0,53.3,38.0,76,53,18,25.34,25.23,12,4,18,0.00
2013-8-6,87.5,71.5,58.4,57.0,52.4,48.0,82,54,26,25.32,25.21,14,5,22,0.00
2013-8-7,78.3,65.2,54.1,57.0,51.6,-99.9,88,65,39,25.36,25.27,23,-4,32,0.00
2013-8-8,80.0,68.0,56.8,59.0,53.7,-99.9,94,64,41,25.39,25.32,12,-8,19,0.00
2013-8-9,82.4,69.6,52.1,57.0,49.0,41.0,89,53,23,25.44,25.36,15,5,26,0.00
2013-8-10,89.4,69.6,54.2,59.0,47.0,-99.9,88,52,22,25.45,25.32,14,-18,18,0.23
2013-8-11,83.6,71.8,62.0,59.0,52.6,45.0,87,55,27,25.44,25.34,16,3,28,0.19
2013-8-12,84.3,66.5,56.1,61.0,49.9,-99.9,94,63,36,25.43,25.38,15,-30,19,0.02
2013-8-13,83.6,64.8,51.4,58.0,42.2,-99.9,91,55,29,25.45,0.00,17,-59,24,0.16
2013-8-14,86.0,68.7,52.9,57.0,49.5,-99.9,91,57,25,25.43,0.00,13,-10,26,0.14
2013-8-15,85.4,67.6,52.5,56.0,49.8,-99.9,91,59,26,25.39,25.32,6,-9,11,0.14
2013-8-16,83.5,68.5,53.0,63.0,57.5,51.0,95,71,40,25.41,25.35,11,4,15,0.00
2013-8-17,87.0,72.5,60.0,65.0,60.6,56.0,97,71,36,25.40,25.28,17,5,21,0.00
2013-8-18,89.7,74.3,58.1,66.0,57.9,-99.9,97,62,24,25.39,25.28,11,-9,17,0.01
2013-8-19,93.4,76.6,57.3,62.0,52.4,45.0,86,49,19,25.34,25.25,21,6,21,0.00
2013-8-20,98.0,81.8,62.2,55.0,45.8,-99.9,67,33,13,25.27,25.21,16,-5,27,0.00
2013-8-21,90.0,76.5,65.9,58.0,52.3,48.0,74,45,24,25.40,25.25,17,6,21,0.00
2013-8-22,86.9,74.1,58.8,62.0,54.4,-99.9,87,56,30,25.44,25.35,11,-9,17,0.00
2013-8-23,91.2,76.2,61.6,63.0,56.7,49.0,93,56,25,25.39,25.18,14,5,26,0.00
2013-8-24,95.4,75.9,57.0,53.0,47.5,-99.9,79,42,18,25.29,25.23,12,-8,15,0.00
2013-8-25,94.7,78.3,62.8,60.0,50.8,-99.9,72,43,21,25.36,25.30,13,-7,27,0.12
2013-8-26,96.5,77.7,59.8,58.0,53.1,-99.9,83,48,22,25.37,25.30,11,-7,14,0.12
2013-8-27,96.1,80.2,67.2,58.0,53.1,-99.9,66,43,23,25.36,25.26,11,-7,16,0.00
2013-8-28,97.2,80.5,64.3,58.0,48.9,39.0,73,39,14,25.35,25.28,14,3,20,0.00
2013-8-29,96.2,78.5,60.8,53.0,47.3,-99.9,63,37,19,25.37,25.32,15,-6,22,0.00
2013-8-30,95.1,73.0,61.8,63.0,53.3,-99.9,79,55,25,25.41,25.30,19,-18,28,0.13
2013-8-31,93.7,74.9,62.0,61.0,51.8,-99.9,83,52,18,25.37,25.25,16,-5,20,0.00
2013-9-1,83.9,70.4,56.8,52.0,46.9,42.0,78,47,25,25.44,25.34,15,4,20,0.00
2013-9-2,91.6,74.7,54.1,59.0,52.7,47.0,83,50,25,25.38,25.25,17,5,28,0.00
2013-9-3,96.4,79.8,63.5,61.0,54.4,49.0,70,45,20,25.34,25.27,13,4,23,0.04
2013-9-4,97.1,77.0,63.3,64.0,52.6,-99.9,76,49,22,25.42,25.33,12,-17,23,0.11
2013-9-5,93.2,77.9,64.9,60.0,55.5,-99.9,77,50,28,25.43,25.34,11,-8,16,0.11
2013-9-6,101.4,80.9,69.3,66.0,50.7,-99.9,74,40,16,25.36,25.30,18,-9,30,0.27
2013-9-7,96.7,77.8,60.0,57.0,49.7,-99.9,82,44,16,25.36,25.25,10,-7,13,0.27
2013-9-8,94.8,77.2,57.0,54.0,47.0,38.0,74,40,14,25.28,25.10,10,3,22,0.00
2013-9-9,84.6,68.5,59.2,59.0,55.0,50.0,94,66,32,25.32,25.17,20,5,25,0.35
2013-9-10,73.7,63.1,59.1,59.0,56.2,-99.9,96,81,56,25.43,25.27,11,-7,13,0.53
2013-9-11,68.6,61.9,58.8,62.0,56.9,-99.9,95,86,77,25.49,25.42,9,-8,11,0.15
2013-9-12,73.5,62.4,59.4,62.0,56.5,-99.9,97,84,55,25.54,25.46,10,-9,14,0.06
2013-9-13,60.3,57.5,56.5,60.0,55.6,-99.9,98,96,92,25.37,0.00,23,-4,30,0.96
2013-9-14,80.7,65.5,56.1,62.0,57.8,54.0,98,79,42,25.29,25.15,16,4,18,0.21
2013-9-15,61.8,57.6,54.1,59.0,55.1,51.0,96,91,76,25.50,25.28,13,4,20,0.09
2013-9-16,66.0,57.2,52.8,58.0,54.2,52.0,96,90,72,25.48,25.30,16,8,24,0.00
2013-9-17,85.5,68.5,50.1,59.0,51.3,42.0,98,63,22,25.29,25.10,17,5,20,0.00
2013-9-18,85.8,69.6,55.7,54.0,49.6,41.0,82,54,22,25.14,25.05,19,6,31,0.00
2013-9-19,66.8,56.3,48.4,52.0,38.8,-99.9,90,58,32,25.40,25.15,18,-17,24,0.16
2013-9-20,75.6,58.7,39.1,48.0,32.9,-99.9,90,46,21,25.40,0.00,8,-38,14,0.00
2013-9-21,87.6,66.3,45.8,52.0,43.0,32.0,85,50,14,25.26,25.07,17,5,20,0.00
2013-9-22,88.9,45.2,49.0,51.0,-2.4,-99.9,87,36,17,25.07,24.88,7,-332,11,0.00
2013-9-23,-200.0,0.0,200.0,-99.9,-99.9,-99.9,0,0,100,25.27,24.85,0,-999,0,0.00
2013-9-24,-200.0,0.0,200.0,-99.9,-99.9,-99.9,0,0,100,25.35,25.14,0,-999,0,0.00
2013-9-25,-200.0,0.0,200.0,-99.9,-99.9,-99.9,0,0,100,25.14,24.80,0,-999,0,0.00
2013-9-26,72.5,48.1,46.4,52.0,14.9,-99.9,84,48,41,25.06,24.89,12,-212,16,0.00
2013-9-27,52.1,43.5,39.7,48.0,41.1,37.0,95,91,86,25.23,25.02,16,7,19,0.22
2013-9-28,50.3,20.8,37.2,39.0,-33.5,-99.9,92,37,44,25.34,25.22,13,-502,19,0.22
2013-9-29,75.4,57.5,37.7,43.0,34.8,26.0,86,49,18,25.32,25.13,18,4,22,0.00
2013-9-30,80.4,63.2,44.7,45.0,38.9,32.0,79,45,20,25.16,25.03,23,6,26,0.00
2013-10-1,70.2,57.3,41.7,43.0,37.6,28.0,89,52,28,25.32,25.14,13,4,21,0.00
2013-10-2,69.6,55.2,41.6,46.0,40.2,36.0,94,61,32,25.24,25.17,17,5,20,0.00
2013-10-3,55.4,48.1,42.8,46.0,41.5,37.0,97,79,62,25.17,25.06,12,5,15,0.01
2013-10-4,43.5,32.6,29.3,43.0,30.1,-99.9,98,93,86,25.35,25.07,39,3,44,0.05
2013-10-5,45.7,37.6,30.0,30.0,26.9,24.0,85,67,44,25.37,25.30,30,17,46,0.00
2013-10-6,62.4,49.9,38.4,39.0,34.3,30.0,75,57,39,25.43,25.35,21,8,28,0.00
2013-10-7,77.4,56.6,38.7,40.0,32.8,23.0,83,49,14,25.39,25.16,10,5,18,0.00
2013-10-8,83.4,56.9,45.6,38.0,30.5,-99.9,72,45,11,25.15,25.02,10,-29,12,0.00
2013-10-9,61.7,51.2,43.4,45.0,40.5,36.0,82,68,51,25.22,25.07,14,6,20,0.00
2013-10-10,60.9,47.6,38.0,47.0,41.8,35.0,93,81,57,25.20,24.68,39,4,47,0.38
2013-10-11,53.2,35.8,40.7,42.0,8.6,-99.9,95,62,58,25.29,24.68,34,-208,50,0.61
2013-10-12,58.0,45.2,35.4,44.0,37.4,31.0,94,75,53,25.40,25.30,15,4,22,0.00
2013-10-13,64.0,50.4,37.2,50.0,39.7,-99.9,89,70,49,25.40,25.17,24,-2,32,0.00
2013-10-14,55.6,43.0,34.4,52.0,38.9,29.0,95,85,79,25.37,25.06,28,12,42,0.03
2013-10-15,40.4,34.6,28.2,29.0,27.3,25.0,87,75,61,25.45,25.37,28,12,39,0.00
2013-10-16,54.0,38.4,24.3,31.0,25.2,20.0,90,64,27,25.39,25.21,11,4,17,0.00
2013-10-17,42.1,35.6,31.7,33.0,27.5,-99.9,96,77,62,25.34,25.25,14,-16,18,0.00
2013-10-18,43.2,33.3,26.8,31.0,26.2,-99.9,96,79,51,25.37,25.30,18,-6,26,0.08
2013-10-19,59.6,45.1,29.5,33.0,26.9,-99.9,83,54,27,25.29,25.13,19,-3,23,0.00
2013-10-20,50.9,42.3,39.0,36.0,30.0,-99.9,84,67,48,25.31,25.13,20,-18,25,0.00
2013-10-21,56.4,46.1,32.3,36.0,30.5,-99.9,88,59,38,25.33,0.00,17,-6,25,0.00
2013-10-22,63.4,51.4,39.9,36.0,33.0,-99.9,80,53,34,25.37,25.31,19,-5,23,0.00
2013-10-23,63.1,47.7,35.5,37.0,30.5,-99.9,89,58,30,25.45,25.30,16,-16,19,0.00
2013-10-24,56.2,42.3,28.0,39.0,34.7,26.0,94,76,51,25.50,25.42,10,3,14,0.00
2013-10-25,69.4,47.6,29.4,40.0,31.2,-99.9,94,62,23,25.43,25.30,16,-6,17,0.00
2013-10-26,66.3,49.4,36.2,37.0,29.6,-99.9,85,54,26,25.52,25.36,11,-20,15,0.00
2013-10-27,71.1,57.2,37.1,33.0,26.6,-99.9,73,35,17,25.24,0.00,14,-9,22,0.00
2013-10-28,56.4,31.9,29.2,34.0,28.0,-99.9,96,89,35,25.34,25.14,15,-5,17,0.00
2013-10-29,39.8,33.5,29.9,34.0,31.7,29.0,97,93,77,25.28,25.15,9,2,15,0.02
2013-10-30,52.7,40.7,32.4,37.0,30.6,25.0,97,71,35,25.18,25.03,19,6,24,0.02
2013-10-31,52.1,43.9,35.9,37.0,27.3,23.0,88,54,35,25.12,25.01,29,13,40,0.02
2013-11-1,49.5,42.3,32.8,37.0,27.3,22.0,89,58,35,25.39,25.13,24,10,34,0.01
2013-11-3,65.8,48.3,31.4,35.0,29.5,23.0,95,56,20,25.12,24.85,19,9,31,0.00
2013-11-4,44.9,32.3,22.3,30.0,22.9,17.0,94,70,34,25.25,25.13,18,5,21,0.00
2013-11-5,35.9,30.5,24.2,29.0,24.9,16.0,94,80,59,25.33,25.22,22,8,28,0.00
2013-11-6,47.8,39.7,24.8,26.0,23.0,16.0,71,53,37,25.47,25.34,18,8,28,0.02
2013-11-7,57.8,46.6,28.9,29.0,25.8,23.0,80,46,29,25.56,25.21,25,8,30,0.00
2013-11-8,62.9,46.1,34.5,31.0,26.5,23.0,79,51,23,25.28,25.05,25,7,40,0.00
2013-11-9,60.3,43.2,30.5,33.0,29.8,27.0,86,63,31,25.46,25.28,9,1,10,0.00
2013-11-10,66.8,43.3,26.2,37.0,28.3,23.0,92,62,23,25.45,25.35,11,3,14,0.00
2013-11-11,36.1,28.4,25.1,27.0,25.0,23.0,95,87,66,25.76,25.36,12,5,15,0.00
2013-11-12,58.7,43.3,26.9,35.0,29.8,26.0,96,63,32,25.75,25.55,12,5,17,0.00
2013-11-13,70.8,51.3,33.9,29.0,17.7,-99.9,66,33,14,25.43,25.22,10,-51,16,0.00
2013-11-14,56.8,36.7,36.2,36.0,6.6,-99.9,89,50,36,25.31,25.03,20,-189,27,0.00
2013-11-15,61.2,46.6,31.2,33.0,18.6,-99.9,88,43,18,25.03,24.77,13,-51,20,0.00
2013-11-16,51.6,40.8,32.3,27.0,13.9,-99.9,69,42,32,24.79,24.66,14,-78,18,0.00
2013-11-17,44.9,30.2,28.4,23.0,-8.6,-99.9,64,33,24,25.31,24.79,37,-198,41,0.00
2013-11-18,61.5,33.8,25.0,25.0,-5.3,-99.9,68,34,19,25.33,25.23,14,-202,18,0.00
2013-11-19,63.0,39.8,27.7,30.0,1.0,-99.9,67,33,23,25.21,24.96,15,-184,22,0.00
2013-11-20,60.2,36.0,19.3,29.0,-2.8,-99.9,91,38,25,25.31,25.01,21,-218,28,0.00
2013-11-21,18.5,9.6,9.4,14.0,-15.8,-99.9,87,64,76,25.69,25.32,18,-215,24,0.00
2013-11-22,30.0,14.2,3.6,14.0,-16.0,-99.9,85,51,50,25.73,25.63,8,-221,13,0.00
2013-11-23,32.2,16.4,11.9,17.0,-12.4,-99.9,87,51,39,25.76,25.52,12,-195,16,0.00
2013-11-24,36.6,21.6,15.3,26.0,-4.1,-99.9,85,60,63,25.50,25.18,12,-196,21,0.00
2013-11-25,43.5,26.0,23.3,27.0,-2.2,-99.9,87,54,46,25.48,25.23,11,-199,14,0.00
2013-11-26,40.3,24.3,22.8,25.0,-3.6,-99.9,86,57,53,25.54,25.44,10,-210,12,0.00
2013-11-27,60.2,33.2,25.4,30.0,0.2,-99.9,84,45,26,25.43,25.23,14,-194,16,0.00
2013-11-28,44.4,27.6,21.4,27.0,-2.3,-99.9,89,52,44,25.44,25.33,14,-194,18,0.00
2013-11-29,57.3,32.6,23.7,29.0,-0.7,-99.9,88,44,28,25.35,25.28,13,-196,22,0.00
2013-11-30,56.2,33.5,29.8,27.0,-0.3,-99.9,76,43,27,25.37,25.31,19,-194,21,0.00
2013-12-1,54.5,37.1,35.0,29.0,0.9,-99.9,64,37,31,25.33,25.06,20,-194,30,0.00
2013-12-2,57.6,39.3,45.0,30.0,-1.3,-99.9,52,31,28,25.06,24.82,28,-210,44,0.00
2013-12-3,49.9,16.7,9.3,28.0,-13.2,-99.9,87,57,36,25.03,24.78,22,-232,29,0.00
2013-12-4,9.2,1.4,-4.5,4.0,-27.0,-99.9,82,56,69,25.27,24.99,21,-225,31,0.00
2013-12-5,10.6,0.5,-7.5,-2.0,-27.7,-99.9,84,54,53,25.34,25.23,10,-217,12,0.00
2013-12-6,9.2,1.4,-7.9,1.0,-26.8,-99.9,85,60,66,25.42,25.33,9,-240,14,0.00
2013-12-7,8.7,3.5,-4.8,4.0,-21.9,-99.9,83,63,78,25.40,25.05,20,-212,29,0.00
2013-12-8,11.0,3.7,-0.6,2.0,-26.6,-99.9,83,53,54,25.23,24.98,19,-237,25,0.00
2013-12-9,20.8,11.0,-2.7,5.0,-21.6,-99.9,78,43,39,25.27,25.17,19,-212,29,0.00
2013-12-10,34.8,19.6,11.4,19.0,-9.4,-99.9,89,51,46,25.44,25.16,23,-191,32,0.00
2013-12-11,35.7,18.0,10.2,19.0,-11.3,-99.9,91,55,48,25.51,25.41,14,-225,20,0.00
2013-12-12,56.3,26.9,13.1,20.0,-9.6,-99.9,76,40,21,25.45,25.15,9,-216,12,0.00
2013-12-13,43.3,27.5,22.7,28.0,-3.8,-99.9,90,48,36,25.33,25.08,18,-201,28,0.00
2013-12-14,42.2,27.6,27.6,26.0,-5.9,-99.9,86,44,38,25.42,25.34,20,-215,25,0.00
2013-12-15,53.0,34.3,30.3,24.0,-3.6,-99.9,65,35,30,25.35,25.25,18,-202,24,0.00
2013-12-16,56.1,38.0,42.0,21.0,-6.4,-99.9,40,25,22,25.41,25.24,32,-202,40,0.00
2013-12-17,61.0,36.3,32.1,20.0,-8.2,-99.9,55,26,18,25.48,25.19,19,-216,23,0.00
2013-12-18,64.4,39.8,37.3,21.0,-9.4,-99.9,50,21,15,25.19,25.00,19,-227,24,0.00
2013-12-19,37.7,18.7,9.0,25.0,-8.7,-99.9,92,60,49,25.14,24.89,23,-218,25,0.00
2013-12-20,31.4,15.4,8.4,19.0,-16.0,-99.9,86,56,59,25.13,24.90,11,-263,15,0.00
2013-12-21,32.2,19.5,13.3,24.0,-6.9,-99.9,89,62,65,25.11,24.84,15,-216,22,0.00
2013-12-22,32.9,18.5,12.8,25.0,-7.9,-99.9,91,62,59,25.41,25.11,17,-214,21,0.00
2013-12-23,31.7,18.6,12.5,22.0,-10.5,-99.9,89,57,63,25.44,25.26,15,-235,19,0.00
2013-12-24,46.1,24.6,23.5,32.0,-2.8,-99.9,85,59,50,25.44,25.16,23,-211,37,0.00
2013-12-25,40.1,23.7,21.9,17.0,-10.8,-99.9,75,42,33,25.54,25.37,13,-216,19,0.00
2013-12-26,49.1,29.0,23.2,19.0,-9.7,-99.9,69,35,27,25.45,25.34,17,-216,21,0.00
2013-12-27,58.7,33.1,23.6,25.0,-3.5,-99.9,72,38,27,25.44,25.25,12,-205,19,0.00
2013-12-28,52.1,26.0,13.2,26.0,-6.5,-99.9,75,46,26,25.41,25.10,23,-199,31,0.00
2013-12-29,38.0,20.5,9.9,15.0,-13.0,-99.9,78,43,38,25.43,25.14,16,-217,23,0.00
2013-12-30,42.4,26.5,23.6,19.0,-10.7,-99.9,65,36,33,25.37,25.16,20,-220,29,0.00
2013-12-31,52.0,33.6,23.8,26.0,-3.1,-99.9,68,37,33,25.25,25.14,28,-201,35,0.00
2014-1-1,39.4,20.8,15.1,34.0,-3.3,-99.9,94,69,77,25.45,25.16,17,-215,26,0.00
2014-1-2,36.7,21.5,14.3,25.0,-7.1,-99.9,89,56,59,25.43,25.19,10,-220,15,0.01